TimeEDT,TemperatureF,Dew PointF,Humidity,Sea Level PressureIn,VisibilityMPH,Wind Direction,Wind SpeedMPH,Gust SpeedMPH,PrecipitationIn,Events,Conditions,WindDirDegrees,DateUTC
12:53 AM,75.0,62.1,64,30.09,10.0,NE,4.6,-,N/A,,Scattered Clouds,40,2013-10-28 04:53:00
1:53 AM,73.9,62.1,66,30.08,10.0,NE,4.6,-,N/A,,Partly Cloudy,40,2013-10-28 05:53:00
2:53 AM,75.0,61.0,62,30.07,10.0,NE,4.6,-,N/A,,Partly Cloudy,50,2013-10-28 06:53:00
3:53 AM,73.0,61.0,66,30.06,10.0,NE,3.5,-,N/A,,Scattered Clouds,40,2013-10-28 07:53:00
4:53 AM,73.0,62.1,68,30.06,10.0,NE,4.6,-,N/A,,Partly Cloudy,50,2013-10-28 08:53:00
5:53 AM,72.0,62.1,71,30.07,10.0,Calm,Calm,-,N/A,,Partly Cloudy,0,2013-10-28 09:53:00
6:53 AM,73.0,62.1,68,30.09,10.0,North,3.5,-,N/A,,Mostly Cloudy,360,2013-10-28 10:53:00
7:53 AM,73.0,62.1,68,30.10,10.0,Calm,Calm,-,N/A,,Scattered Clouds,0,2013-10-28 11:53:00
8:53 AM,75.0,64.0,69,30.12,10.0,North,3.5,-,N/A,,Scattered Clouds,10,2013-10-28 12:53:00
9:53 AM,80.1,64.0,58,30.13,10.0,East,10.4,16.1,N/A,,Scattered Clouds,80,2013-10-28 13:53:00
10:53 AM,81.0,64.9,58,30.14,10.0,NE,10.4,-,N/A,,Scattered Clouds,50,2013-10-28 14:53:00
11:53 AM,82.9,64.9,54,30.14,10.0,East,9.2,-,N/A,,Scattered Clouds,90,2013-10-28 15:53:00
12:53 PM,82.9,64.9,54,30.12,10.0,ENE,9.2,-,N/A,,Scattered Clouds,60,2013-10-28 16:53:00
1:53 PM,82.9,64.9,54,30.10,10.0,ENE,10.4,18.4,N/A,,Scattered Clouds,70,2013-10-28 17:53:00
2:53 PM,84.0,64.0,51,30.08,10.0,NE,9.2,-,N/A,,Scattered Clouds,50,2013-10-28 18:53:00
3:53 PM,82.9,63.0,51,30.08,10.0,East,11.5,-,N/A,,Scattered Clouds,90,2013-10-28 19:53:00
4:53 PM,82.9,59.0,44,30.09,10.0,East,11.5,-,N/A,,Scattered Clouds,80,2013-10-28 20:53:00
5:53 PM,81.0,59.0,47,30.10,10.0,ENE,10.4,19.6,N/A,,Scattered Clouds,60,2013-10-28 21:53:00
6:53 PM,79.0,61.0,54,30.12,10.0,ENE,9.2,-,N/A,,Scattered Clouds,70,2013-10-28 22:53:00
7:53 PM,78.1,62.1,58,30.12,10.0,NE,6.9,-,N/A,,Partly Cloudy,50,2013-10-28 23:53:00
8:53 PM,77.0,64.0,64,30.14,10.0,NE,6.9,-,N/A,,Partly Cloudy,50,2013-10-29 00:53:00
9:53 PM,77.0,64.0,64,30.14,10.0,NE,4.6,-,N/A,,Partly Cloudy,40,2013-10-29 01:53:00
10:53 PM,75.9,64.9,69,30.15,10.0,NNE,3.5,-,N/A,,Partly Cloudy,30,2013-10-29 02:53:00
11:53 PM,75.9,64.9,69,30.14,10.0,NE,3.5,-,N/A,,Partly Cloudy,40,2013-10-29 03:53:00